Weather History for Jonesboro, AR

Change the Weather History Date:

Sunday, January 27, 2013

  Actual Average Record
Temperature  
Mean Temperature 51 °F 38 °F  
Max Temperature 60 °F 47 °F 73 °F (1934)
Min Temperature 41 °F 29 °F 5 °F (1986)
Degree Days  
Heating Degree Days 14 27  
Month to date heating degree days 683 750  
Since 1 July heating degree days 1945 2192  
Cooling Degree Days 0 0  
Month to date cooling degree days 0 0  
Year to date cooling degree days 0 0  
Growing Degree Days 1 (Base 50)    
Moisture  
Dew Point 43 °F    
Average Humidity 80    
Maximum Humidity 93    
Minimum Humidity 66    
Precipitation  
Precipitation T in 0.13 in 2.26 in (1942)
Month to date precipitation 3.81 2.91  
Year to date precipitation 3.81 2.91  
Snow  
Snow 0.00 in - 2.50 in (1948)
Month to date snowfall 0.5  
Since 1 July snowfall 7.0  
Snow Depth 0.00 in    
Sea Level Pressure  
Sea Level Pressure 30.17 in    
Wind  
Wind Speed 7 mph (SE)    
Max Wind Speed 12 mph    
Max Gust Speed 16 mph    
Visibility 10 miles    
Events Rain    
T = Trace of Precipitation, MM = Missing Value Source: NWS Daily Summary

Daily Weather History Graph

Daily Weather History Graph

Search for Another Location

Airport:

Trip Planner

Search our weather history database for the weather conditions in past years. The results will help you decide how hot, cold, wet, or windy it might be!

Date:

Astronomy

Jan. 27, 2013 Rise Set
Actual Time 7:06 AM CST 5:24 PM CST
Civil Twilight 6:39 AM CST 5:52 PM CST
Nautical Twilight 6:08 AM CST 6:22 PM CST
Astronomical Twilight 5:38 AM CST 6:53 PM CST
Moon 6:15 PM CST (1/27) 7:02 AM CST (1/27)
Length of Visible Light 11h 12m
Length of Day
10h 18m
Full, 100% of the Moon is Illuminated
Jan 27
Full
Feb 3
Last Quarter
Feb 10
New
Feb 17
First Quarter
Feb 25
Full

Hourly Weather History & Observations

Time (CST) Temp. Windchill Dew Point Humidity Pressure Visibility Wind Dir Wind Speed Gust Speed Precip Events Conditions
12:53 AM 42.1 °F 38.4 °F 33.1 °F 70% 30.27 in 10.0 mi ENE 5.8 mph - N/A   Overcast
1:53 AM 43.0 °F 39.5 °F 32.0 °F 65% 30.27 in 10.0 mi NE 5.8 mph - N/A   Overcast
2:53 AM 42.1 °F 37.1 °F 33.1 °F 70% 30.25 in 10.0 mi ENE 8.1 mph - N/A   Overcast
3:53 AM 42.1 °F 38.4 °F 33.1 °F 70% 30.24 in 10.0 mi ENE 5.8 mph - N/A   Overcast
4:17 AM 42.8 °F 40.1 °F 33.8 °F 70% 30.24 in 10.0 mi ENE 4.6 mph - N/A   Overcast
4:53 AM 42.1 °F 36.6 °F 33.1 °F 70% 30.22 in 10.0 mi ENE 9.2 mph - N/A   Overcast
5:53 AM 42.1 °F 37.1 °F 34.0 °F 73% 30.24 in 10.0 mi ENE 8.1 mph - N/A   Overcast
6:53 AM 42.1 °F 37.1 °F 34.0 °F 73% 30.24 in 10.0 mi East 8.1 mph - N/A   Overcast
7:53 AM 43.0 °F 40.3 °F 36.0 °F 76% 30.24 in 10.0 mi ENE 4.6 mph - N/A   Overcast
8:53 AM 45.0 °F 42.6 °F 37.0 °F 74% 30.24 in 10.0 mi East 4.6 mph - N/A   Overcast
9:53 AM 46.9 °F - 37.9 °F 71% 30.24 in 10.0 mi ESE 4.6 mph - N/A   Overcast
10:53 AM 50.0 °F - 39.0 °F 66% 30.24 in 10.0 mi SSE 5.8 mph - N/A   Overcast
11:05 AM 50.0 °F - 39.2 °F 66% 30.23 in 10.0 mi SSE 5.8 mph - N/A   Overcast
11:53 AM 51.1 °F - 41.0 °F 68% 30.20 in 10.0 mi South 8.1 mph - N/A   Overcast
12:53 PM 53.1 °F - 45.0 °F 74% 30.17 in 10.0 mi South 6.9 mph - 0.00 in   Overcast
1:28 PM 55.4 °F - 46.4 °F 72% 30.15 in 10.0 mi South 10.4 mph - N/A   Partly Cloudy
1:53 PM 55.9 °F - 48.0 °F 75% 30.14 in 10.0 mi South 9.2 mph - 0.00 in Rain Light Rain
2:53 PM 57.9 °F - 50.0 °F 75% 30.12 in 10.0 mi South 9.2 mph - 0.00 in   Scattered Clouds
3:53 PM 60.1 °F - 52.0 °F 75% 30.11 in 10.0 mi SSE 8.1 mph - N/A   Mostly Cloudy
4:08 PM 60.8 °F - 51.8 °F 72% 30.10 in 10.0 mi South 10.4 mph - N/A   Scattered Clouds
4:53 PM 60.1 °F - 53.1 °F 78% 30.09 in 10.0 mi SSE 11.5 mph - N/A   Clear
5:53 PM 57.9 °F - 53.1 °F 84% 30.10 in 10.0 mi SSE 8.1 mph - N/A   Partly Cloudy
6:53 PM 57.9 °F - 53.1 °F 84% 30.10 in 10.0 mi South 9.2 mph - N/A   Clear
7:53 PM 55.9 °F - 53.1 °F 90% 30.09 in 10.0 mi South 8.1 mph - N/A   Clear
8:53 PM 55.0 °F - 52.0 °F 89% 30.09 in 10.0 mi Calm Calm - N/A   Clear
9:53 PM 55.9 °F - 52.0 °F 87% 30.09 in 10.0 mi South 5.8 mph - N/A   Overcast
10:53 PM 55.9 °F - 52.0 °F 87% 30.08 in 10.0 mi South 8.1 mph - N/A   Overcast
11:53 PM 55.9 °F - 52.0 °F 87% 30.08 in 10.0 mi South 8.1 mph - N/A   Overcast